Location: Bakhuizen
(52.8696°N, 5.4575°E)
Time: 04:44:42
(UTC+00:00)

MetOp-B - Pass Details

Date: 11 May 2021
Orbit: 819 x 821 km, 98.7° (Epoch: 14 June)

Event Time Altitude Azimuth Distance (km) Brightness Sun altitude
Exits shadow 20:15:12 - 162° (SSE) 2,907 6.5 -7.0°
Reaches altitude 10° 20:16:27 10° 162° (SSE) 2,415 6.1 -7.2°
Maximum altitude 20:21:48 90° 89° (E) 829 4.2 -7.7°
Drops below altitude 10° 20:27:12 10° 344° (NNW) 2,430 7.7 -8.3°
Sets 20:29:34 0° 345° (NNW) 3,367 8.5 -8.6°
